DW7955 Weather Reports


Display with metric or nautical units.
time (UTC)temp
F
wind
direction
speed
MPH
gust
MPH
rain 1hr
in
rain 24hr
in
rain mn
in
humidity
%
barometer
mb
20260904203050 92 38 5.0 11.0 0.00 0.00 0.00 21 1001.8
20260904201546 91 82 7.0 11.0 0.00 0.00 0.00 21 1001.9
20260904200052 90 78 6.0 13.0 0.00 0.00 0.00 21 1002.0
20260904194545 91 67 5.0 11.0 0.00 0.00 0.00 21 1002.3
20260904193047 91 152 2.0 8.0 0.00 0.00 0.00 21 1002.4
20260904191544 90 170 5.0 12.0 0.00 0.00 0.00 21 1002.5
20260904190043 91 144 8.0 10.0 0.00 0.00 0.00 20 1002.7
20260904184558 90 190 5.0 9.0 0.00 0.00 0.00 21 1002.8
20260904183040 90 46 3.0 10.0 0.00 0.00 0.00 21 1003.0
20260904181541 89 76 2.0 8.0 0.00 0.00 0.00 21 1003.2
20260904180049 89 124 3.0 7.0 0.00 0.00 0.00 22 1003.3
20260904174539 89 167 3.0 7.0 0.00 0.00 0.00 22 1003.4
20260904173045 89 300 0.0 6.0 0.00 0.00 0.00 22 1003.7
20260904171532 88 149 0.0 6.0 0.00 0.00 0.00 23 1003.8
20260904170031 87 230 2.0 6.0 0.00 0.00 0.00 24 1003.9
20260904164529 85 258 0.0 4.0 0.00 0.00 0.00 24 1004.1
20260904163026 85 210 1.0 5.0 0.00 0.00 0.00 25 1004.2
20260904161521 83 191 2.0 4.0 0.00 0.00 0.00 26 1004.3
20260904160021 82 163 2.0 5.0 0.00 0.00 0.00 27 1004.3
20260904154516 80 177 1.0 4.0 0.00 0.00 0.00 27 1004.3
20260904153010 78 131 1.0 4.0 0.00 0.00 0.00 29 1004.4
20260904151507 76 206 2.0 5.0 0.00 0.00 0.00 29 1004.4
20260904150011 75 180 1.0 5.0 0.00 0.00 0.00 30 1004.4
20260904144558 73 149 3.0 5.0 0.00 0.00 0.00 34 1004.6
20260904143055 72 217 2.0 4.0 0.00 0.00 0.00 31 1004.4
20260904141611 71 188 0.0 2.0 0.00 0.00 0.00 33 1004.5
20260904140049 69 26 0.0 1.0 0.00 0.00 0.00 36 1004.3
20260904134547 68 26 0.0 0.0 0.00 0.00 0.00 39 1004.1
20260904133047 67 26 0.0 0.0 0.00 0.00 0.00 40 1004.1
20260904131604 64 26 0.0 2.0 0.00 0.00 0.00 41 1004.0
20260904130041 64 334 1.0 3.0 0.00 0.00 0.00 40 1003.7
20260904124543 62 13 0.0 0.0 0.00 0.00 0.00 41 1003.5
20260904123046 62 13 0.0 4.0 0.00 0.00 0.00 41 1003.2
20260904121534 63 337 0.0 0.0 0.00 0.00 0.00 40 1003.1
20260904120033 64 345 0.0 0.0 0.00 0.00 0.00 38 1002.9
20260904114541 64 304 0.0 0.0 0.00 0.00 0.00 38 1002.8
20260904113033 65 304 0.0 2.0 0.00 0.00 0.00 36 1002.6
20260904111528 65 294 0.0 3.0 0.00 0.00 0.00 37 1002.5
20260904110034 65 292 0.0 3.0 0.00 0.00 0.00 39 1002.3
20260904104523 64 336 0.0 0.0 0.00 0.00 0.00 41 1002.3
20260904103022 65 336 0.0 0.0 0.00 0.00 0.00 40 1001.9
20260904101521 65 336 0.0 1.0 0.00 0.00 0.00 41 1001.8
20260904100019 64 297 0.0 0.0 0.00 0.00 0.00 44 1001.6
20260904094517 64 297 0.0 0.0 0.00 0.00 0.00 46 1001.5
20260904093016 66 297 0.0 0.0 0.00 0.00 0.00 44 1001.3
20260904091515 67 297 0.0 0.0 0.00 0.00 0.00 40 1001.3
20260904090019 68 297 0.0 1.0 0.00 0.00 0.00 40 1001.2
20260904084514 69 297 2.0 6.0 0.00 0.00 0.00 38 1001.0
20260904083016 68 5 2.0 6.0 0.00 0.00 0.00 42 1001.1
20260904081514 67 1 4.0 6.0 0.00 0.00 0.00 45 1001.2
20260904080011 65 343 2.0 4.0 0.00 0.00 0.00 46 1001.2
20260904074511 65 240 0.0 0.0 0.00 0.00 0.00 45 1001.3
20260904073009 65 234 1.0 3.0 0.00 0.00 0.00 44 1001.3
20260904071517 66 19 0.0 0.0 0.00 0.00 0.00 42 1001.1
20260904070002 66 19 0.0 0.0 0.00 0.00 0.00 40 1001.0
20260904064558 67 19 1.0 3.0 0.00 0.00 0.00 38 1000.8
20260904063108 70 33 1.0 3.0 0.00 0.00 0.00 35 1000.7
20260904061600 70 1 3.0 5.0 0.00 0.00 0.00 36 1000.5
20260904060109 71 244 0.0 1.0 0.00 0.00 0.00 33 1000.4
20260904054548 73 244 1.0 6.0 0.00 0.00 0.00 31 1000.3
20260904053048 77 240 3.0 5.0 0.00 0.00 0.00 27 1000.1
20260904051548 77 84 1.0 3.0 0.00 0.00 0.00 28 1000.2
20260904050046 78 73 1.0 7.0 0.00 0.00 0.00 27 1000.4
20260904044551 79 47 3.0 6.0 0.00 0.00 0.00 25 1000.4
20260904043046 80 80 4.0 8.0 0.00 0.00 0.00 25 1000.5
20260904041545 79 52 1.0 9.0 0.00 0.00 0.00 28 1000.6
20260904040044 77 36 5.0 6.0 0.00 0.00 0.00 30 1000.7
20260904034558 76 15 2.0 3.0 0.00 0.00 0.00 29 1000.6
20260904033043 78 14 0.0 2.0 0.00 0.00 0.00 27 1000.4
20260904031543 80 34 0.0 1.0 0.00 0.00 0.00 25 1000.3
20260904030043 82 19 0.0 2.0 0.00 0.00 0.00 22 1000.2
20260904024542 84 62 0.0 3.0 0.00 0.00 0.00 21 1000.2
20260904023042 83 92 2.0 4.0 0.00 0.00 0.00 21 1000.0
20260904021547 83 30 0.0 3.0 0.00 0.00 0.00 22 999.7
20260904020042 86 68 0.0 3.0 0.00 0.00 0.00 19 999.7
20260904014545 87 126 1.0 4.0 0.00 0.00 0.00 18 999.5
20260904013040 89 105 0.0 3.0 0.00 0.00 0.00 18 999.4
20260904011543 90 78 2.0 3.0 0.00 0.00 0.00 16 999.2
20260904010050 91 116 1.0 4.0 0.00 0.00 0.00 15 999.1
20260904004555 92 10 0.0 5.0 0.00 0.00 0.00 15 999.1
20260904003037 92 43 2.0 7.0 0.00 0.00 0.00 15 999.2
20260904001537 93 57 5.0 8.0 0.00 0.00 0.00 15 999.3
20260904000038 94 113 3.0 7.0 0.00 0.00 0.00 15 999.2
20260903234542 93 230 1.0 7.0 0.00 0.00 0.00 16 999.4
20260903233035 93 74 3.0 7.0 0.00 0.00 0.00 15 999.3
20260903231534 95 164 0.0 3.0 0.00 0.00 0.00 15 999.4
20260903230032 94 167 2.0 6.0 0.00 0.00 0.00 16 999.6
20260903224532 94 228 3.0 7.0 0.00 0.00 0.00 16 999.7
20260903223036 93 309 1.0 6.0 0.00 0.00 0.00 17 999.7
20260903221526 94 311 4.0 7.0 0.00 0.00 0.00 16 999.9
20260903220035 93 11 3.0 8.0 0.00 0.00 0.00 16 1000.0
20260903214522 93 214 4.0 6.0 0.00 0.00 0.00 17 1000.2
20260903213032 93 99 3.0 7.0 0.00 0.00 0.00 18 1000.4
20260903211547 91 72 3.0 12.0 0.00 0.00 0.00 18 1000.6
20260903210016 92 253 1.0 8.0 0.00 0.00 0.00 18 1000.7
20260903204514 91 144 2.0 9.0 0.00 0.00 0.00 18 1000.9